{"data":{"norad_id":58115,"epoch":"2026-09-20T22:19:03.283104Z","epoch_age_seconds":103228,"freshness":"FRESH","line1":"1 58115U 23161U   26263.92989911  .00002221  00000+0  76876-4 0  9994","line2":"2 58115  53.1614 335.8168 0000819  60.6011 299.5073 15.34391008164345","mean_motion":15.34391008,"eccentricity":8.19e-5,"inclination_deg":53.1614,"raan_deg":335.8168,"arg_perigee_deg":60.6011,"mean_anomaly_deg":299.5073,"bstar":7.6876e-5,"rev_number":16434,"period_min":93.848308057864,"perigee_km":462.16969945205,"apogee_km":463.29023346116,"semimajor_km":6840.8669664566,"source":"CELESTRAK","updated_at":"2026-09-21T09:00:33.789756Z"}}